Printer-friendly version

IAU Minor Planet Center

Minor Planet Center

176P/LINEAR

Orbital Elements

The following orbital elements are taken from Catalogue of Cometary Orbits 17th edition:
176P/LINEAR
Epoch 2005 Nov. 6.0 TT = JDT 2453680.5
T 2005 Oct. 18.4112 TT                                  MPC
q   2.581119             (2000.0)            P               Q
n   0.1724699      Peri.   36.1486      +0.9221809      -0.3867577
a   3.196395       Node   346.6042      +0.3538630      +0.8447457
e   0.192491       Incl.    0.2379      +0.1560878      +0.3698963
P   5.71
From 223 observations 1999-2008, mean residual 0".5.
Elements are also available for the current standard epoch:
176P/LINEAR
Epoch 2009 June 18.0 TT = JDT 2455000.5
T 2011 July 2.8620 TT                                   MPC
q   2.575694             (2000.0)            P               Q
n   0.1727560      Peri.   35.9819      +0.9239364      -0.3825448
a   3.192866       Node   346.5094      +0.3500021      +0.8463542
e   0.193297       Incl.    0.2378      +0.1544020      +0.3705996
P   5.71
An explanation of the orbital elements is available.

These orbital elements are also available in forms suitable for loading into a number of popular planetarium-type software programs.


Ephemeris

The following ephemeris is at intervals of five days. A daily ephemeris covering the same time interval is also available.

Personalized ephemerides for this (and other) objects may be generated using the Minor Planet & Comet Ephemeris Service.

Recent magnitude estimates for this comet (as reported to the ICQ) may be available.

Date    TT    R. A. (2000) Decl.     Delta      r     Elong.  Phase   m1    m2

WARNING!

This comet gets close to the sun during the period covered in the ephemeris below. Observers are warned to be wary of observing comets near the sun. NEVER point any kind of optical instrument at the sun--instant blindness will be the probable result.

2009 06 08 15 11.78 -18 09.5 2.715 3.650 153.2 7.2 20.5 2009 06 13 15 08.91 -17 57.9 2.745 3.645 147.8 8.5 20.6 2009 06 18 15 06.43 -17 47.7 2.781 3.639 142.4 9.8 20.7 2009 06 23 15 04.36 -17 39.1 2.823 3.634 137.1 11.0 20.7 2009 06 28 15 02.75 -17 32.2 2.869 3.628 131.9 12.0 20.8 2009 07 03 15 01.61 -17 27.2 2.920 3.622 126.9 13.0 20.9 2009 07 08 15 00.94 -17 24.1 2.974 3.616 121.9 13.8 20.9 2009 07 13 15 00.75 -17 23.0 3.032 3.610 117.1 14.5 21.0 2009 07 18 15 01.03 -17 23.8 3.092 3.604 112.4 15.1 21.1 2009 07 23 15 01.77 -17 26.6 3.154 3.598 107.8 15.6 21.1 2009 07 28 15 02.97 -17 31.2 3.219 3.591 103.3 16.0 21.2 2009 08 02 15 04.60 -17 37.6 3.284 3.585 99.0 16.2 21.2 2009 08 07 15 06.64 -17 45.6 3.350 3.579 94.7 16.4 21.3 2009 08 12 15 09.08 -17 55.2 3.417 3.572 90.5 16.5 21.3 2009 08 17 15 11.90 -18 06.1 3.483 3.566 86.4 16.5 21.4 2009 08 22 15 15.08 -18 18.2 3.549 3.559 82.3 16.4 21.4 2009 08 27 15 18.61 -18 31.5 3.615 3.552 78.4 16.2 21.4 2009 09 01 15 22.47 -18 45.7 3.679 3.545 74.5 15.9 21.4 2009 09 06 15 26.63 -19 00.6 3.742 3.538 70.7 15.6 21.5 2009 09 11 15 31.08 -19 16.3 3.803 3.531 66.9 15.2 21.5 2009 09 16 15 35.81 -19 32.4 3.862 3.524 63.2 14.8 21.5 2009 09 21 15 40.80 -19 48.9 3.919 3.517 59.5 14.2 21.5 2009 09 26 15 46.04 -20 05.6 3.973 3.510 55.9 13.7 21.5 2009 10 01 15 51.51 -20 22.4 4.024 3.503 52.3 13.1 21.5 2009 10 06 15 57.19 -20 39.2 4.073 3.495 48.7 12.4 21.5 2009 10 11 16 03.09 -20 55.8 4.119 3.488 45.2 11.7 21.5 2009 10 16 16 09.18 -21 12.1 4.161 3.480 41.7 11.0 21.5 2009 10 21 16 15.45 -21 28.0 4.200 3.473 38.2 10.2 21.5 2009 10 26 16 21.89 -21 43.4 4.235 3.465 34.7 9.4 21.5 2009 10 31 16 28.49 -21 58.1 4.267 3.457 31.3 8.6 21.4 2009 11 05 16 35.24 -22 12.2 4.295 3.449 27.9 7.7 21.4 2009 11 10 16 42.12 -22 25.4 4.318 3.442 24.5 6.8 21.4 2009 11 15 16 49.13 -22 37.8 4.338 3.434 21.1 5.9 21.3 2009 11 20 16 56.25 -22 49.1 4.354 3.426 17.7 5.0 21.3 2009 11 25 17 03.48 -22 59.4 4.365 3.418 14.3 4.1 21.2 2009 11 30 17 10.79 -23 08.5 4.373 3.409 10.9 3.1 21.2 2009 12 05 17 18.18 -23 16.5 4.376 3.401 7.6 2.2 21.1 2009 12 10 17 25.64 -23 23.2 4.374 3.393 4.2 1.2 21.0 2009 12 15 17 33.15 -23 28.7 4.369 3.385 0.9 0.3 20.9 2009 12 20 17 40.70 -23 32.8 4.359 3.376 2.5 0.7 21.0 2009 12 25 17 48.29 -23 35.6 4.345 3.368 5.9 1.7 21.0 2009 12 30 17 55.89 -23 37.1 4.326 3.359 9.2 2.7 21.1 2010 01 04 18 03.49 -23 37.1 4.304 3.351 12.6 3.7 21.1 2010 01 09 18 11.09 -23 35.8 4.277 3.342 15.9 4.6 21.2 2010 01 14 18 18.67 -23 33.1 4.246 3.333 19.3 5.6 21.2 2010 01 19 18 26.21 -23 29.1 4.211 3.325 22.6 6.5 21.2 2010 01 24 18 33.70 -23 23.8 4.172 3.316 26.0 7.5 21.2 2010 01 29 18 41.14 -23 17.2 4.130 3.307 29.4 8.4 21.3 2010 02 03 18 48.50 -23 09.4 4.084 3.298 32.8 9.3 21.3 2010 02 08 18 55.77 -23 00.4 4.034 3.289 36.2 10.2 21.3 2010 02 13 19 02.94 -22 50.4 3.981 3.280 39.6 11.0 21.3 2010 02 18 19 10.00 -22 39.3 3.925 3.271 43.0 11.9 21.3 2010 02 23 19 16.93 -22 27.2 3.865 3.262 46.4 12.7 21.3 2010 02 28 19 23.72 -22 14.4 3.803 3.253 49.8 13.5 21.2 2010 03 05 19 30.35 -22 00.7 3.738 3.244 53.3 14.2 21.2 2010 03 10 19 36.80 -21 46.5 3.671 3.235 56.8 14.9 21.2 2010 03 15 19 43.07 -21 31.7 3.601 3.226 60.3 15.5 21.2 2010 03 20 19 49.14 -21 16.5 3.529 3.217 63.8 16.1 21.1 2010 03 25 19 54.98 -21 01.2 3.455 3.207 67.4 16.7 21.1 2010 03 30 20 00.59 -20 45.6 3.380 3.198 71.0 17.2 21.1 2010 04 04 20 05.94 -20 30.2 3.304 3.189 74.7 17.6 21.0 2010 04 09 20 11.02 -20 14.9 3.226 3.180 78.4 18.0 21.0 2010 04 14 20 15.81 -20 00.0 3.147 3.170 82.1 18.3 20.9 2010 04 19 20 20.28 -19 45.6 3.068 3.161 86.0 18.5 20.9 2010 04 24 20 24.40 -19 31.9 2.989 3.151 89.8 18.6 20.8 2010 04 29 20 28.17 -19 19.2 2.910 3.142 93.8 18.6 20.8 2010 05 04 20 31.55 -19 07.4 2.832 3.132 97.8 18.6 20.7 2010 05 09 20 34.53 -18 56.9 2.754 3.123 101.9 18.4 20.6 2010 05 14 20 37.06 -18 47.8 2.677 3.114 106.2 18.2 20.5 2010 05 19 20 39.14 -18 40.4 2.602 3.104 110.5 17.8 20.5 2010 05 24 20 40.73 -18 34.6 2.529 3.095 114.9 17.3 20.4 2010 05 29 20 41.81 -18 30.8 2.458 3.085 119.4 16.6 20.3 2010 06 03 20 42.36 -18 28.8 2.390 3.076 124.1 15.9 20.2 2010 06 08 20 42.37 -18 29.0 2.326 3.066 128.9 14.9 20.1 2010 06 13 20 41.82 -18 31.3 2.265 3.057 133.8 13.9 20.0 2010 06 18 20 40.71 -18 35.6 2.208 3.047 138.8 12.7 19.9 2010 06 23 20 39.06 -18 42.0 2.156 3.038 144.0 11.3 19.8 2010 06 28 20 36.87 -18 50.2 2.109 3.028 149.3 9.9 19.7 2010 07 03 20 34.19 -19 00.0 2.068 3.019 154.7 8.3 19.6 2010 07 08 20 31.07 -19 11.2 2.033 3.009 160.3 6.6 19.4 2010 07 13 20 27.55 -19 23.5 2.004 3.000 165.9 4.7 19.3

Back to Observable Comets


Valid HTML 4.01!